DW4128 Weather Reports


time (UTC)temp
C
wind
direction
speed
KPH
gust
KPH
rain 1hr
cm
rain 24hr
cm
rain mn
cm
humidity
%
barometer
mb
20260506203015 12 127 0.0 0.0 0.00 0.00 0.71 93 1006.6
20260506201516 13 127 0.0 0.0 0.00 0.00 0.71 93 1006.6
20260506200012 13 127 0.0 0.0 0.00 0.00 0.71 93 1006.3
20260506194512 13 128 0.0 0.0 0.00 0.00 0.69 93 1006.0
20260506193012 13 130 0.0 0.0 0.00 0.00 0.69 93 1005.8
20260506191511 13 44 0.0 0.0 0.00 0.00 0.69 93 1005.5
20260506190010 13 44 0.0 0.0 0.00 0.00 0.66 92 1005.1
20260506184510 13 44 0.0 0.0 0.00 0.00 0.66 91 1004.8
20260506183010 13 44 0.0 0.0 0.00 0.00 0.64 90 1004.3
20260506181509 14 44 0.0 0.0 0.00 0.00 0.64 90 1004.3
20260506180009 14 44 0.0 0.0 0.00 0.00 0.61 90 1004.1
20260506174508 15 89 0.0 0.0 0.00 0.00 0.58 90 1004.0
20260506173008 15 343 0.0 0.0 0.00 0.00 0.53 90 1003.9
20260506171508 15 59 0.0 0.0 0.00 0.00 0.48 89 1003.6
20260506170008 15 171 1.6 0.0 0.00 0.00 0.41 86 1003.6
20260506164513 15 117 0.0 0.0 0.00 0.00 0.30 83 1003.5
20260506163006 16 85 1.6 0.0 0.00 0.00 0.25 78 1003.2
20260506161506 17 342 1.6 0.0 0.00 0.00 0.20 78 1002.8
20260506160006 18 58 0.0 0.0 0.00 0.00 0.13 75 1002.6
20260506154514 18 17 0.0 0.0 0.00 0.00 0.05 69 1002.4
20260506153003 19 340 1.6 0.0 0.00 0.00 0.05 64 1002.2
20260506151503 20 325 1.6 0.0 0.00 0.00 0.05 61 1002.4
20260506150002 20 45 0.0 0.0 0.00 0.00 0.05 60 1002.2
20260506144501 20 49 1.6 0.0 0.00 0.00 0.05 58 1002.3
20260506143001 21 79 1.6 0.0 0.00 0.00 0.05 58 1002.4
20260506141601 22 342 1.6 0.0 0.00 0.00 0.05 53 1002.4
20260506140100 22 62 1.6 0.0 0.00 0.00 0.05 53 1002.5
20260506134600 21 337 1.6 0.0 0.00 0.00 0.05 56 1002.7
20260506133114 22 0 0.0 0.0 0.00 0.00 0.05 51 1002.9
20260506131603 22 359 1.6 0.0 0.00 0.00 0.05 54 1002.8
20260506130056 21 95 1.6 0.0 0.00 0.00 0.05 53 1002.9
20260506124558 21 274 1.6 0.0 0.00 0.00 0.05 56 1003.1
20260506123051 21 78 1.6 0.0 0.00 0.00 0.05 58 1003.1
20260506121549 21 37 1.6 0.0 0.00 0.00 0.05 55 1003.2
20260506120046 20 339 3.2 0.0 0.00 0.00 0.05 61 1003.3
20260506114544 20 85 1.6 0.0 0.00 0.00 0.05 61 1003.4
20260506113043 19 322 1.6 0.0 0.00 0.00 0.05 64 1003.5
20260506111542 19 10 1.6 0.0 0.00 0.00 0.05 65 1003.5
20260506110037 18 302 1.6 0.0 0.00 0.00 0.03 66 1003.7
20260506104533 18 354 0.0 0.0 0.00 0.00 0.03 66 1003.8
20260506103037 17 359 3.2 0.0 0.00 0.00 0.03 71 1003.9
20260506101530 17 346 3.2 0.0 0.00 0.00 0.03 76 1003.9
20260506100035 16 254 3.2 0.0 0.00 0.00 0.03 78 1004.0
20260506094535 16 309 3.2 0.0 0.00 0.00 0.03 74 1003.9
20260506093034 17 352 3.2 0.0 0.00 0.00 0.03 72 1003.8
20260506091528 18 299 3.2 0.0 0.00 0.00 0.03 69 1003.8
20260506090021 17 210 4.8 0.0 0.00 0.00 0.03 71 1003.9
20260506084518 16 119 1.6 0.0 0.00 0.00 0.03 77 1004.0
20260506083014 16 117 1.6 0.0 0.00 0.00 0.03 81 1004.1
20260506081510 15 117 0.0 0.0 0.00 0.00 0.03 85 1004.3
20260506073057 15 119 0.0 0.0 0.00 0.00 0.03 88 1004.3
20260506071553 14 120 0.0 0.0 0.00 0.00 0.03 94 1004.2
20260506061546 13 120 0.0 0.0 0.00 0.00 0.03 96 1004.8
20260506044543 13 120 0.0 0.0 0.00 0.00 0.03 96 1005.4
20260506043041 12 23 0.0 0.0 0.00 0.00 0.03 96 1005.5
20260506041539 12 23 0.0 0.0 0.00 0.00 0.03 96 1005.8
20260506040040 12 23 0.0 0.0 0.00 0.00 0.03 95 1005.5
20260506034538 12 23 0.0 0.0 0.00 0.00 0.03 95 1005.8
20260506033038 12 23 0.0 0.0 0.00 0.00 0.03 95 1006.0
20260506031537 12 23 0.0 0.0 0.00 0.00 0.03 95 1006.1
20260506030037 12 23 0.0 0.0 0.00 0.00 0.03 95 1006.4
20260506024544 12 23 0.0 0.0 0.00 0.00 0.03 95 1006.5
20260506023035 12 23 0.0 0.0 0.00 0.00 0.03 95 1006.6
20260506021534 12 23 0.0 0.0 0.00 0.00 0.03 95 1006.8
20260506020032 12 23 0.0 0.0 0.00 0.00 0.03 95 1006.8
20260506014536 12 23 0.0 0.0 0.00 0.00 0.03 95 1006.7
20260506013133 12 23 0.0 0.0 0.00 0.00 0.03 95 1007.0
20260506011532 12 23 0.0 0.0 0.00 0.00 0.03 95 1007.3
20260506010033 12 23 0.0 0.0 0.00 0.00 0.03 95 1007.6
20260506004529 12 23 0.0 0.0 0.00 0.00 0.03 95 1007.7
20260506003035 12 23 0.0 0.0 0.00 0.00 0.00 95 1008.0
20260506001534 12 23 0.0 0.0 0.00 0.00 0.00 95 1008.3
20260506000027 12 23 0.0 0.0 0.00 0.00 0.00 94 1008.3
20260505234530 12 23 0.0 0.0 0.00 0.00 0.00 94 1008.4
20260505233025 12 23 0.0 0.0 0.00 0.00 0.00 93 1008.5
20260505231525 13 23 0.0 0.0 0.00 0.00 0.00 94 1008.7
20260505230044 13 23 0.0 0.0 0.00 0.00 0.00 94 1008.7
20260505224522 13 23 0.0 0.0 0.00 0.00 0.00 94 1008.8
20260505223021 13 23 0.0 0.0 0.00 0.00 0.00 94 1009.0
20260505221521 13 23 0.0 0.0 0.00 0.00 0.00 94 1009.1
20260505220029 13 23 0.0 0.0 0.00 0.00 0.99 94 1009.1
20260505214519 13 23 0.0 0.0 0.00 0.00 0.99 94 1009.2
20260505213022 13 23 0.0 0.0 0.00 0.00 0.99 93 1009.2
20260505211519 13 23 0.0 0.0 0.00 0.00 0.99 93 1009.4
20260505210017 13 23 0.0 0.0 0.00 0.00 0.99 93 1009.5
20260505204517 13 23 0.0 0.0 0.00 0.00 0.97 93 1009.4